SCP
0 0 1 1 1 1 1 1 0 1 1 0 0 0 0 0 0 0 0 1 1 1 1 1 1 1 1 0 0 0 0 0 0 0 0 0 0 1 1 0 0 0 0
0 1 1 1 1 1 1 1 1 1 0 0 0 0 0 0 0 0 0 1 1 1 1 1 1 1 1 0 0 0 0 0 0 0 0 0 0 1 1 0 0 0 0
1 1 1 1 1 1 1 1 1 0 0 0 0 0 0 0 0 0 0 0 1 1 1 1 1 1 1 1 1 1 1 1 1 1 0 0 0 1 1 1 0 0 0
1 1 1 1 1 1 1 1 1 0 0 0 0 0 0 0 0 0 0 0 0 0 1 1 1 1 1 1 1 1 1 1 1 1 1 1 1 1 1 1 0 0 0
2 2 1 1 1 1 1 1 1 1 1 0 0 0 0 0 0 0 0 0 0 0 0 1 1 1 1 1 1 1 1 1 1 1 1 1 1 1 1 1 1 0 0
2 2 2 2 2 1 1 1 1 1 1 1 0 0 0 0 0 0 0 1 1 0 0 0 1 1 1 1 1 1 1 1 1 1 1 1 0 0 1 1 0 0 0
2 2 2 2 2 2 2 1 1 1 1 1 0 0 0 0 0 0 1 1 1 1 0 0 0 1 1 1 1 1 1 1 1 1 1 1 0 0 0 1 0 0 0
2 2 2 2 2 2 2 2 1 1 1 1 0 0 0 0 0 0 1 1 1 1 0 0 0 0 0 0 0 1 1 1 1 1 1 1 1 0 0 0 0 0 0
2 2 2 2 2 2 2 2 2 1 1 1 0 0 0 0 0 0 0 0 0 0 0 0 0 0 0 0 0 0 1 1 1 1 1 1 1 0 0 0 0 0 0
1 1 1 2 2 2 2 2 2 1 1 1 0 0 0 0 0 0 0 0 0 0 0 0 0 0 0 0 0 0 0 0 1 1 1 1 1 0 0 0 0 0 0
1 1 1 1 1 2 2 2 1 1 1 1 0 0 0 0 0 0 0 0 0 0 0 0 0 0 0 0 0 0 0 0 0 0 0 0 0 0 0 0 0 0 0
0 0 1 1 1 1 1 1 1 1 1 1 0 0 0 0 0 0 0 0 0 0 0 0 0 0 0 0 0 0 0 0 0 0 0 0 0 0 0 0 1 0 0
0 0 0 0 0 0 1 1 1 1 0 1 1 1 0 0 0 0 0 0 0 0 0 0 0 0 0 0 0 0 0 0 0 0 0 0 0 0 0 0 0 0 0
0 0 0 0 0 0 0 0 0 0 0 1 1 1 0 0 0 0 0 0 0 0 0 0 0 0 0 0 0 0 0 0 0 0 0 0 0 0 0 0 0 0 0
0 0 0 0 0 0 0 0 0 0 0 0 1 1 0 0 0 0 0 0 0 0 0 0 0 0 0 0 0 0 0 0 0 0 0 0 0 0 0 0 0 0 0
0 0 0 0 0 0 0 0 0 0 0 0 0 0 0 0 0 0 0 0 0 0 0 0 0 0 0 0 0 0 0 0 0 0 0 0 0 0 0 0 0 0 0
0 0 0 0 0 0 0 0 0 0 0 0 0 0 0 0 0 0 0 0 0 0 0 0 0 0 0 0 0 0 0 0 0 0 0 0 0 0 0 0 0 0 0
0 0 0 0 0 0 0 0 0 0 0 0 0 0 0 0 0 0 0 0 0 0 0 0 0 0 0 0 0 0 0 0 0 0 0 0 0 0 0 0 0 0 0
0 0 0 0 0 0 0 0 0 0 0 0 0 0 0 0 0 0 0 0 0 0 0 0 0 0 0 0 0 0 0 0 0 0 0 0 0 0 0 0 0 0 0
0 0 0 0 0 0 0 0 0 0 0 0 0 0 0 0 0 0 0 0 0 0 0 0 0 0 0 0 0 0 0 0 0 0 0 0 0 0 0 0 0 0 0
0 0 0 0 0 0 0 0 0 0 0 0 0 0 0 0 0 0 0 0 0 0 0 0 0 0 0 0 0 0 0 0 0 0 0 0 0 0 0 0 0 0 0
0 0 0 0 0 0 0 0 0 0 0 0 0 0 0 0 0 0 0 0 0 0 0 0 0 0 0 0 0 0 0 0 0 0 0 0 0 0 0 0 0 0 0
0 0 0 0 0 0 0 0 0 0 0 0 0 0 0 0 0 0 0 0 0 0 0 0 0 0 0 0 0 0 0 0 0 0 0 0 0 0 0 0 0 0 0
0 0 0 0 0 0 0 0 0 0 0 0 0 0 0 0 0 0 0 0 0 0 0 0 0 0 0 0 0 0 0 0 0 0 0 0 0 0 0 0 0 0 0
0 0 0 0 0 0 0 0 0 0 0 0 0 0 0 0 0 0 0 0 0 0 0 0 0 0 0 0 0 0 0 0 0 0 0 0 0 0 0 0 0 0 0
0 0 0 0 0 0 0 0 0 0 0 0 0 0 0 0 0 0 0 0 0 0 0 0 0 0 0 0 0 0 0 0 0 0 0 0 0 0 0 0 0 0 0
Wind_Speed
5 4 4 4 4 4 4 4 5 6 7 7 8 9 8 8 8 7 5 12 13 13 14 14 13 13 13 13 13 14 15 16 15 15 16 18 19 19 20 19 18 17 16
5 4 4 4 4 4 5 5 7 6 6 6 7 7 7 7 7 7 6 7 12 13 13 14 14 14 14 14 14 14 14 14 14 14 15 17 18 19 21 21 20 19 18
6 5 4 4 4 4 4 4 5 4 4 5 6 7 6 6 6 7 6 5 6 11 14 15 15 14 14 15 15 14 13 13 13 14 14 16 17 19 21 22 22 20 19
6 5 4 4 5 4 3 3 4 3 4 4 4 5 5 5 7 7 6 6 5 5 9 14 15 15 15 16 16 15 14 13 13 14 14 15 16 19 21 23 22 21 20
5 4 4 4 4 3 4 4 4 4 4 5 5 5 5 5 6 7 7 7 6 6 5 9 14 15 16 17 17 16 15 14 13 14 14 14 15 18 21 23 23 23 22
4 4 3 4 4 4 4 4 5 4 4 4 5 5 4 5 5 5 6 5 5 6 6 7 6 9 15 16 16 16 16 15 14 14 14 14 14 16 20 23 24 25 24
3 3 3 4 4 5 6 6 4 5 5 3 2 4 4 5 5 5 4 4 4 6 7 7 6 5 5 13 15 15 15 15 14 14 14 14 14 14 19 23 25 25 26
2 2 4 4 5 5 6 6 5 4 4 3 4 2 3 4 3 3 3 4 4 6 8 9 7 6 6 4 6 11 12 14 14 14 14 14 14 13 17 23 26 27 27
4 4 5 5 6 6 6 7 7 7 5 4 4 4 3 4 3 3 2 3 4 4 6 6 7 7 7 5 4 6 9 10 12 14 14 14 13 13 16 23 26 28 28
4 5 5 6 7 6 7 8 7 6 6 5 4 4 4 4 3 2 3 2 3 6 7 7 6 6 5 3 4 6 7 9 11 13 15 15 14 13 15 22 27 29 29
4 6 6 6 6 6 8 8 7 7 6 6 4 3 3 2 3 3 3 3 2 3 4 6 5 4 3 3 3 4 5 7 9 11 12 14 13 13 15 22 27 30 30
3 6 7 6 6 5 6 6 6 7 5 5 4 3 3 3 3 3 3 3 4 4 4 4 4 3 3 3 3 3 3 4 6 7 8 9 10 11 16 22 28 30 29
2 5 6 6 6 5 4 3 2 3 3 4 4 3 3 3 2 2 2 2 2 3 4 3 2 1 3 3 2 3 1 2 3 3 3 2 6 11 17 24 28 28 27
2 4 5 5 6 6 6 5 3 2 0 1 2 2 2 2 2 2 2 1 1 2 3 5 2 2 2 3 3 3 1 1 2 4 5 6 10 14 19 22 24 24 24
2 3 4 4 4 5 5 5 4 5 4 2 1 0 1 1 1 1 1 1 1 2 3 4 3 1 2 2 4 2 2 3 5 6 8 10 12 14 16 17 18 19 18
3 4 4 4 4 4 4 3 3 3 4 3 2 2 2 1 1 1 1 1 2 3 4 4 3 2 3 3 4 3 3 6 7 8 10 12 13 14 15 15 15 15 15
3 4 4 4 4 4 4 3 3 3 2 2 2 2 2 2 1 1 1 1 3 4 6 5 3 2 4 4 3 3 3 3 4 8 10 11 12 13 13 14 14 14 14
3 4 3 3 4 4 4 3 4 3 2 2 1 2 3 3 4 3 2 2 3 4 5 5 3 2 4 4 4 4 4 4 3 7 9 10 11 12 12 12 12 13 13
3 4 4 4 4 5 4 4 3 2 2 2 3 4 4 4 4 3 3 4 3 3 3 4 3 2 2 2 3 3 3 2 4 7 8 8 10 11 11 11 12 12 12
3 4 5 5 4 5 6 5 4 5 5 5 5 5 5 4 4 5 4 5 5 4 3 2 2 2 1 2 3 3 3 2 2 4 6 7 9 11 11 12 13 13 13
4 4 5 6 6 5 6 5 5 6 5 5 5 5 6 7 7 5 4 5 6 4 4 2 2 1 1 1 2 2 3 2 1 1 3 3 4 5 7 11 14 15 15
4 5 6 6 6 6 8 10 7 6 6 6 6 6 6 8 9 9 9 9 8 6 5 4 3 3 2 1 1 2 3 3 2 0 2 2 3 4 5 6 11 15 16
4 5 4 5 5 7 10 11 11 7 7 6 6 6 7 8 9 7 8 10 10 12 10 4 4 5 4 4 2 2 2 2 2 2 2 2 2 3 3 5 10 12 13
3 4 4 4 5 7 9 10 11 8 7 6 6 6 6 8 9 7 7 8 7 7 7 5 3 3 3 4 3 1 1 2 1 0 1 2 2 3 3 3 8 10 11
3 3 3 4 5 6 7 8 8 5 5 5 5 6 6 6 11 11 9 8 9 8 8 8 5 5 6 7 5 3 2 2 1 0 0 1 1 2 2 3 5 10 10
3 4 5 4 5 5 7 6 6 3 4 3 4 5 9 9 11 11 7 7 8 7 8 8 7 7 6 6 6 3 2 1 1 1 1 1 1 1 2 2 3 4 5
Wind_Direction
218 214 212 203 206 207 217 226 231 235 239 244 247 247 246 240 239 239 244 244 231 228 231 234 234 237 243 247 248 249 250 252 250 243 238 232 225 214 204 198 195 192 189
209 196 197 198 205 207 216 222 225 226 232 236 244 246 244 241 240 237 231 237 231 228 231 236 238 240 245 249 251 251 252 254 254 249 244 237 228 217 205 198 195 192 188
198 190 188 196 208 211 216 218 225 227 234 238 248 255 255 249 246 242 235 227 231 235 236 238 240 241 244 250 254 255 254 253 254 253 250 241 230 218 206 197 194 191 186
198 190 193 206 213 212 214 217 220 229 238 239 247 257 257 254 253 248 241 232 227 233 239 239 239 240 243 249 253 256 256 255 255 254 253 246 235 220 206 196 192 188 183
204 195 203 214 213 215 221 230 226 221 239 245 247 251 252 251 252 253 245 240 236 235 236 242 239 239 242 248 250 253 255 255 254 256 256 252 241 222 206 195 189 185 181
200 195 210 221 217 218 229 229 234 234 232 236 253 261 259 254 248 241 243 249 256 253 241 234 234 241 241 244 247 251 256 257 255 255 256 255 249 229 208 194 187 183 180
217 208 220 228 225 223 229 228 228 239 243 230 241 280 282 258 245 238 227 226 259 272 258 237 225 224 239 242 246 250 256 259 258 255 254 252 249 236 211 195 187 182 177
295 265 246 244 238 236 240 236 225 230 241 212 193 220 292 315 301 255 221 212 229 256 263 246 226 225 232 235 244 249 256 261 260 257 254 249 243 235 211 196 186 179 174
326 302 277 260 251 239 241 238 227 224 235 238 199 179 196 234 292 306 245 223 228 243 256 257 241 233 231 228 237 252 258 262 265 265 263 254 242 228 210 195 186 176 171
338 324 302 280 262 248 243 242 234 221 220 233 232 215 200 178 185 289 295 250 231 236 244 256 255 244 229 214 215 234 254 262 268 270 269 261 244 226 210 193 183 172 166
344 340 323 305 283 262 250 244 238 224 216 217 214 208 210 208 190 201 269 299 305 262 254 256 258 255 224 186 196 221 248 269 278 280 274 262 246 227 204 188 176 167 165
343 349 343 333 316 293 265 250 239 226 217 212 209 202 190 187 190 192 232 274 294 292 288 272 261 238 197 171 184 199 254 287 296 294 283 261 235 208 184 173 166 164 165
344 343 348 347 347 342 332 306 253 229 211 201 199 199 197 197 180 182 205 252 282 309 311 309 295 234 171 155 169 186 262 327 335 335 321 240 177 164 159 158 161 163 166
329 329 339 347 357 6 14 17 23 3 4 194 197 196 197 199 181 177 186 196 290 302 300 289 292 233 164 160 175 162 141 93 74 68 75 96 122 136 144 151 157 161 165
326 330 332 341 352 4 14 20 25 15 12 12 358 267 213 204 196 186 186 180 179 259 278 271 259 220 172 165 173 155 140 136 118 104 99 103 113 124 133 142 149 156 160
321 318 319 327 334 341 352 7 7 4 12 359 354 349 334 311 301 252 220 211 201 225 254 260 251 214 190 178 171 157 150 145 134 123 116 115 118 123 129 137 144 151 160
304 303 301 309 316 318 322 332 325 319 332 328 322 322 319 305 305 308 283 246 223 216 240 262 254 220 186 180 160 152 143 143 148 144 137 134 134 135 139 143 151 162 171
308 310 323 336 337 334 321 310 304 307 290 295 319 19 10 17 15 356 336 299 264 236 226 249 254 219 203 190 170 161 156 161 159 166 157 154 154 156 159 163 170 177 184
360 13 34 36 25 11 0 343 340 4 32 55 60 63 43 39 21 355 349 339 314 293 245 235 251 229 205 169 155 158 158 144 175 176 175 175 178 179 180 185 191 195 200
51 49 50 46 36 22 14 9 31 55 62 64 63 58 41 31 12 356 359 348 334 325 310 270 258 244 208 165 146 147 144 138 172 170 180 188 196 199 201 203 207 209 213
72 68 58 40 25 26 14 17 41 58 60 58 50 43 35 21 6 359 354 343 344 343 343 346 335 353 35 123 170 149 144 131 102 127 150 182 187 198 210 218 219 220 219
78 76 66 54 37 25 21 46 62 56 51 48 38 23 25 22 8 12 18 23 24 15 4 7 7 17 13 5 98 123 128 134 158 177 142 179 170 188 205 208 217 220 222
91 86 77 61 42 18 36 60 69 68 59 50 43 35 38 26 21 15 15 19 18 19 24 19 24 11 3 358 28 91 111 131 159 179 143 178 182 186 197 202 203 212 219
100 95 85 67 50 23 42 74 79 73 67 55 46 44 49 34 22 24 26 18 9 6 6 18 22 5 7 9 28 52 115 113 101 98 156 190 200 204 196 204 201 195 198
85 88 89 73 57 23 41 90 93 78 65 48 38 40 43 37 20 32 34 19 12 3 2 9 12 12 13 19 20 37 41 66 61 321 181 185 216 217 200 204 208 200 190
87 89 79 66 63 40 38 77 101 91 67 37 20 22 31 30 24 32 36 26 14 348 350 3 8 3 359 356 9 29 34 54 43 314 249 187 229 229 251 209 189 194 198